SAS003 ESGG-ENBR

Flight info

Callsign SAS003
Flight time 1h 0m
Altitude 36000
Route DETNA3J DETNA DCT ARTOR DCT TITUX DCT PESUR PESUR3N
Aircraft A320/M-SDE2E3GHIJ1J3J4J5LM1ORWXYZ/LB1D1

Departure

Time 2026-05-06 18:31
Airport Göteborg Landvetter Airport (ESGG)

Arrival

Time 2026-05-06 19:31
Airport Bergen Airport, Flesland (ENBR)
Time Latitude Longitude Altitude Speed Heading
2026-05-06 18:04 57.66975 12.29490 510 ft 0 kts 116°
2026-05-06 18:24 57.66976 12.29486 510 ft 1 kts 119°
2026-05-06 18:24 57.66986 12.29448 510 ft 4 kts 115°
2026-05-06 18:24 57.66997 12.29412 510 ft 1 kts 115°
2026-05-06 18:24 57.66997 12.29410 510 ft 0 kts 117°
2026-05-06 18:25 57.67004 12.29395 510 ft 1 kts 107°
2026-05-06 18:25 57.67004 12.29376 510 ft 0 kts 27°
2026-05-06 18:26 57.67036 12.29402 510 ft 5 kts 24°
2026-05-06 18:26 57.67050 12.29414 511 ft 3 kts 24°
2026-05-06 18:27 57.67097 12.29458 511 ft 12 kts 29°
2026-05-06 18:27 57.67160 12.29514 512 ft 9 kts 24°
2026-05-06 18:27 57.67210 12.29474 512 ft 9 kts 292°
2026-05-06 18:27 57.67282 12.29419 513 ft 15 kts
2026-05-06 18:28 57.67332 12.29451 513 ft 0 kts 28°
2026-05-06 18:28 57.67374 12.29479 513 ft 12 kts
2026-05-06 18:29 57.67424 12.29412 514 ft 0 kts 291°
2026-05-06 18:29 57.67431 12.29383 514 ft 5 kts 295°
2026-05-06 18:29 57.67453 12.29305 514 ft 8 kts 297°
2026-05-06 18:29 57.67459 12.29186 513 ft 6 kts 257°
2026-05-06 18:30 57.67439 12.29080 512 ft 11 kts 244°
2026-05-06 18:30 57.67408 12.28998 512 ft 12 kts 215°
2026-05-06 18:30 57.67091 12.28703 512 ft 93 kts 206°
2026-05-06 18:30 57.66594 12.28259 505 ft 145 kts 205°
2026-05-06 18:31 57.65513 12.27295 733 ft 187 kts 208°
2026-05-06 18:31 57.64365 12.26256 1760 ft 179 kts 208°
2026-05-06 18:31 57.63264 12.25258 2781 ft 178 kts 207°
2026-05-06 18:31 57.62112 12.24184 3494 ft 193 kts 207°
2026-05-06 18:32 57.60856 12.23004 4116 ft 213 kts 206°
2026-05-06 18:32 57.59455 12.21732 4747 ft 237 kts 205°
2026-05-06 18:32 57.57926 12.20206 4965 ft 257 kts 217°
2026-05-06 18:32 57.56789 12.17655 5005 ft 260 kts 244°
2026-05-06 18:33 57.56321 12.14396 5005 ft 263 kts 258°
2026-05-06 18:33 57.55990 12.11055 5000 ft 262 kts 258°
2026-05-06 18:33 57.55659 12.07720 5006 ft 262 kts 258°
2026-05-06 18:33 57.55319 12.04390 4996 ft 262 kts 257°
2026-05-06 18:34 57.54972 12.01055 5001 ft 262 kts 257°
2026-05-06 18:34 57.54622 11.97725 5011 ft 262 kts 257°
2026-05-06 18:34 57.54271 11.94405 5001 ft 261 kts 257°
2026-05-06 18:34 57.54050 11.91042 5012 ft 263 kts 267°
2026-05-06 18:35 57.54165 11.87642 5016 ft 264 kts 275°
2026-05-06 18:35 57.54384 11.84254 5013 ft 264 kts 275°
2026-05-06 18:35 57.54593 11.80840 5140 ft 266 kts 274°
2026-05-06 18:35 57.54798 11.77393 5794 ft 270 kts 274°
2026-05-06 18:36 57.55002 11.73929 6945 ft 269 kts 274°
2026-05-06 18:36 57.55206 11.70445 8035 ft 272 kts 274°
2026-05-06 18:36 57.55410 11.66919 9117 ft 276 kts 275°
2026-05-06 18:36 57.55615 11.63338 10136 ft 280 kts 275°
2026-05-06 18:37 57.55825 11.59645 10825 ft 297 kts 275°
2026-05-06 18:37 57.56052 11.55687 11269 ft 319 kts 275°
2026-05-06 18:37 57.56292 11.51480 11942 ft 329 kts 275°
2026-05-06 18:37 57.56534 11.47231 12909 ft 332 kts 276°
2026-05-06 18:38 57.56778 11.42928 13844 ft 336 kts 276°
2026-05-06 18:38 57.57020 11.38638 14670 ft 339 kts 276°
2026-05-06 18:38 57.57270 11.34197 15561 ft 341 kts 275°
2026-05-06 18:38 57.57515 11.29788 16417 ft 344 kts 275°
2026-05-06 18:39 57.57761 11.25345 17259 ft 346 kts 275°
2026-05-06 18:39 57.58006 11.20870 18119 ft 349 kts 275°
2026-05-06 18:39 57.58249 11.16417 18834 ft 351 kts 275°
2026-05-06 18:40 57.59593 11.07654 20251 ft 362 kts 299°
2026-05-06 18:40 57.61244 11.04052 20911 ft 372 kts 315°
2026-05-06 18:40 57.63397 11.01260 21567 ft 380 kts 322°
2026-05-06 18:40 57.65641 10.98585 22202 ft 385 kts 322°
2026-05-06 18:41 57.67903 10.95886 22850 ft 388 kts 322°
2026-05-06 18:41 57.70190 10.93141 23495 ft 392 kts 322°
2026-05-06 18:41 57.72497 10.90358 23875 ft 396 kts 321°
2026-05-06 18:41 57.74813 10.87553 24028 ft 397 kts 321°
2026-05-06 18:42 57.77143 10.84723 24352 ft 401 kts 321°
2026-05-06 18:42 57.79485 10.81874 24932 ft 402 kts 321°
2026-05-06 18:42 57.81843 10.79001 25443 ft 406 kts 321°
2026-05-06 18:42 57.84217 10.76101 25935 ft 409 kts 320°
2026-05-06 18:43 57.86615 10.73168 26424 ft 413 kts 320°
2026-05-06 18:43 57.89029 10.70211 26903 ft 416 kts 320°
2026-05-06 18:43 57.91462 10.67227 27364 ft 419 kts 320°
2026-05-06 18:43 57.93915 10.64213 27830 ft 422 kts 320°
2026-05-06 18:44 57.96386 10.61172 28269 ft 426 kts 320°
2026-05-06 18:44 57.98870 10.58109 28702 ft 429 kts 319°
2026-05-06 18:44 58.01370 10.55021 29124 ft 431 kts 319°
2026-05-06 18:44 58.03888 10.51907 29533 ft 434 kts 319°
2026-05-06 18:45 58.06419 10.48770 29936 ft 437 kts 319°
2026-05-06 18:45 58.08969 10.45604 30299 ft 440 kts 319°
2026-05-06 18:45 58.11531 10.42418 30665 ft 442 kts 319°
2026-05-06 18:45 58.14105 10.39210 31028 ft 444 kts 319°
2026-05-06 18:46 58.16688 10.35989 31435 ft 445 kts 319°
2026-05-06 18:46 58.19269 10.32765 31895 ft 444 kts 319°
2026-05-06 18:46 58.21839 10.29549 32362 ft 443 kts 319°
2026-05-06 18:46 58.24408 10.26327 32815 ft 442 kts 319°
2026-05-06 18:47 58.26963 10.23116 33274 ft 441 kts 319°
2026-05-06 18:47 58.29531 10.19880 33693 ft 441 kts 319°
2026-05-06 18:47 58.32087 10.16654 34079 ft 440 kts 319°
2026-05-06 18:47 58.34528 10.13220 34396 ft 435 kts 313°
2026-05-06 18:48 58.36833 10.09504 34682 ft 435 kts 313°
2026-05-06 18:48 58.39159 10.05812 34983 ft 435 kts 313°
2026-05-06 18:48 58.41490 10.02127 35265 ft 436 kts 314°
2026-05-06 18:48 58.43825 9.98428 35546 ft 436 kts 314°
2026-05-06 18:49 58.46158 9.94718 35816 ft 437 kts 314°
2026-05-06 18:49 58.48491 9.90993 35998 ft 437 kts 314°
2026-05-06 18:49 58.50818 9.87270 36033 ft 436 kts 314°
2026-05-06 18:50 58.55455 9.79831 36028 ft 435 kts 314°
2026-05-06 18:50 58.60084 9.72376 36038 ft 435 kts 314°
2026-05-06 18:51 58.64706 9.64905 36033 ft 434 kts 314°
2026-05-06 18:51 58.69318 9.57425 36023 ft 434 kts 314°
2026-05-06 18:52 58.73929 9.49918 36029 ft 434 kts 314°
2026-05-06 18:52 58.78528 9.42405 36026 ft 434 kts 314°
2026-05-06 18:53 58.83123 9.34872 36026 ft 433 kts 313°
2026-05-06 18:53 58.87715 9.27315 36028 ft 433 kts 313°
2026-05-06 18:54 58.92267 9.19797 36027 ft 433 kts 313°
2026-05-06 18:54 58.96844 9.12212 36025 ft 433 kts 313°
2026-05-06 18:55 59.01404 9.04630 35867 ft 430 kts 313°
2026-05-06 18:55 59.03694 9.00816 35451 ft 427 kts 313°
2026-05-06 18:55 59.06018 8.97191 34893 ft 431 kts 320°
2026-05-06 18:55 59.08662 8.94492 34300 ft 440 kts 330°
2026-05-06 18:56 59.11569 8.92346 33621 ft 442 kts 333°
2026-05-06 18:56 59.14480 8.90383 32831 ft 443 kts 333°
2026-05-06 18:56 59.17358 8.88482 32248 ft 441 kts 333°
2026-05-06 18:56 59.20271 8.86564 32066 ft 446 kts 333°
2026-05-06 18:57 59.23236 8.84605 32038 ft 451 kts 333°
2026-05-06 18:57 59.29172 8.80693 32033 ft 450 kts 333°
2026-05-06 18:58 59.35102 8.76784 32036 ft 449 kts 333°
2026-05-06 18:58 59.41034 8.72863 32045 ft 451 kts 333°
2026-05-06 18:59 59.46959 8.68861 32029 ft 446 kts 329°
2026-05-06 18:59 59.52172 8.62754 31993 ft 431 kts 315°
2026-05-06 19:00 59.56569 8.54978 31925 ft 420 kts 305°
2026-05-06 19:00 59.60065 8.45941 31917 ft 409 kts 295°
2026-05-06 19:01 59.62558 8.35990 31909 ft 401 kts 285°
2026-05-06 19:01 59.63986 8.25454 31905 ft 394 kts 275°
2026-05-06 19:02 59.64310 8.14733 31905 ft 389 kts 265°
2026-05-06 19:02 59.64228 8.09462 32061 ft 390 kts 272°
2026-05-06 19:02 59.64799 8.04158 32067 ft 401 kts 285°
2026-05-06 19:02 59.66046 7.99152 32067 ft 411 kts 297°
2026-05-06 19:03 59.67878 7.94801 31875 ft 419 kts 309°
2026-05-06 19:03 59.70240 7.91266 31386 ft 430 kts 322°
2026-05-06 19:03 59.73016 7.88819 30719 ft 445 kts 334°
2026-05-06 19:03 59.76019 7.87214 30042 ft 444 kts 333°
2026-05-06 19:04 59.78801 7.84931 29424 ft 422 kts 321°
2026-05-06 19:04 59.81137 7.81689 28763 ft 399 kts 309°
2026-05-06 19:04 59.83058 7.77877 27833 ft 384 kts 302°
2026-05-06 19:04 59.84703 7.73792 26925 ft 373 kts 299°
2026-05-06 19:05 59.86203 7.69641 26033 ft 366 kts 298°
2026-05-06 19:05 59.87635 7.65515 25190 ft 359 kts 298°
2026-05-06 19:05 59.89038 7.61446 24372 ft 353 kts 298°
2026-05-06 19:05 59.90421 7.57443 23574 ft 348 kts 298°
2026-05-06 19:06 59.91784 7.53512 22576 ft 343 kts 298°
2026-05-06 19:06 59.93140 7.49615 21606 ft 340 kts 299°
2026-05-06 19:06 59.94480 7.45765 20673 ft 337 kts 299°
2026-05-06 19:06 59.95807 7.41950 19765 ft 333 kts 299°
2026-05-06 19:07 59.97122 7.38161 18882 ft 330 kts 299°
2026-05-06 19:07 59.97986 7.35671 18305 ft 329 kts 300°
2026-05-06 19:07 59.99715 7.30676 17056 ft 324 kts 300°
2026-05-06 19:07 60.00990 7.26987 16173 ft 321 kts 300°
2026-05-06 19:08 60.02253 7.23325 15275 ft 319 kts 301°
2026-05-06 19:08 60.03505 7.19688 14416 ft 316 kts 301°
2026-05-06 19:08 60.04748 7.16073 13538 ft 315 kts 301°
2026-05-06 19:08 60.05984 7.12471 12599 ft 313 kts 302°
2026-05-06 19:09 60.07199 7.08920 11678 ft 313 kts 303°
2026-05-06 19:09 60.08428 7.05326 10780 ft 313 kts 303°
2026-05-06 19:09 60.09649 7.01755 10228 ft 309 kts 304°
2026-05-06 19:09 60.10878 6.98164 10039 ft 314 kts 304°
2026-05-06 19:10 60.12107 6.94565 9977 ft 312 kts 304°
2026-05-06 19:10 60.13327 6.90991 9981 ft 304 kts 304°
2026-05-06 19:10 60.14486 6.87591 9976 ft 287 kts 304°
2026-05-06 19:10 60.15578 6.84386 9975 ft 270 kts 304°
2026-05-06 19:11 60.16624 6.81311 9978 ft 269 kts 304°
2026-05-06 19:11 60.17682 6.78196 9974 ft 269 kts 304°
2026-05-06 19:11 60.18732 6.75101 9979 ft 269 kts 304°
2026-05-06 19:11 60.19785 6.71993 9976 ft 269 kts 303°
2026-05-06 19:12 60.20835 6.68885 9975 ft 268 kts 303°
2026-05-06 19:12 60.21882 6.65786 9981 ft 269 kts 303°
2026-05-06 19:12 60.22935 6.62664 9979 ft 269 kts 303°
2026-05-06 19:12 60.23983 6.59549 9977 ft 268 kts 302°
2026-05-06 19:13 60.24887 6.56262 9977 ft 269 kts 295°
2026-05-06 19:13 60.25699 6.52873 9974 ft 269 kts 296°
2026-05-06 19:13 60.26528 6.49494 9978 ft 269 kts 296°
2026-05-06 19:13 60.27358 6.46128 9977 ft 269 kts 296°
2026-05-06 19:14 60.28190 6.42741 9973 ft 270 kts 296°
2026-05-06 19:14 60.29020 6.39355 9973 ft 269 kts 296°
2026-05-06 19:14 60.29846 6.35968 9976 ft 269 kts 296°
2026-05-06 19:14 60.30671 6.32578 9980 ft 269 kts 296°
2026-05-06 19:15 60.31494 6.29191 9974 ft 269 kts 295°
2026-05-06 19:15 60.32315 6.25804 9976 ft 269 kts 295°
2026-05-06 19:15 60.33137 6.22410 9979 ft 269 kts 295°
2026-05-06 19:15 60.33959 6.19008 9979 ft 270 kts 295°
2026-05-06 19:16 60.34503 6.16757 9975 ft 269 kts 295°
2026-05-06 19:16 60.35323 6.13354 9977 ft 270 kts 295°
2026-05-06 19:16 60.36143 6.09948 9979 ft 269 kts 295°
2026-05-06 19:16 60.36960 6.06549 9984 ft 269 kts 295°
2026-05-06 19:17 60.37776 6.03147 9985 ft 270 kts 295°
2026-05-06 19:17 60.38590 5.99748 9982 ft 269 kts 295°
2026-05-06 19:17 60.39406 5.96335 9982 ft 268 kts 295°
2026-05-06 19:17 60.40210 5.92969 9921 ft 262 kts 295°
2026-05-06 19:18 60.40987 5.89712 9829 ft 252 kts 295°
2026-05-06 19:18 60.41736 5.86565 9546 ft 248 kts 295°
2026-05-06 19:18 60.42482 5.83427 9282 ft 243 kts 295°
2026-05-06 19:18 60.43198 5.80411 9105 ft 234 kts 295°
2026-05-06 19:19 60.43898 5.77458 8778 ft 232 kts 295°
2026-05-06 19:19 60.44595 5.74513 8442 ft 232 kts 295°
2026-05-06 19:19 60.45289 5.71573 8119 ft 231 kts 294°
2026-05-06 19:19 60.45978 5.68654 7790 ft 230 kts 294°
2026-05-06 19:20 60.46656 5.65776 7465 ft 229 kts 294°
2026-05-06 19:20 60.47484 5.62980 7112 ft 230 kts 314°
2026-05-06 19:20 60.48855 5.61382 7009 ft 235 kts 344°
2026-05-06 19:20 60.50501 5.61192 6992 ft 238 kts 358°
2026-05-06 19:21 60.52150 5.61255 6993 ft 237 kts 359°
2026-05-06 19:21 60.53789 5.61003 6993 ft 235 kts 346°
2026-05-06 19:21 60.55347 5.60056 6995 ft 234 kts 338°
2026-05-06 19:21 60.56820 5.58708 6988 ft 230 kts 320°
2026-05-06 19:22 60.57782 5.56205 6946 ft 225 kts 290°
2026-05-06 19:22 60.58036 5.53089 6683 ft 225 kts 273°
2026-05-06 19:22 60.58111 5.49943 6350 ft 226 kts 272°
2026-05-06 19:22 60.58188 5.46767 6067 ft 224 kts 272°
2026-05-06 19:23 60.58263 5.43563 5738 ft 223 kts 272°
2026-05-06 19:23 60.58338 5.40452 5441 ft 223 kts 272°
2026-05-06 19:23 60.58413 5.37309 5136 ft 222 kts 272°
2026-05-06 19:23 60.58488 5.34176 4827 ft 221 kts 272°
2026-05-06 19:24 60.58561 5.31066 4571 ft 217 kts 272°
2026-05-06 19:24 60.58631 5.28069 4487 ft 207 kts 272°
2026-05-06 19:24 60.58696 5.25202 4368 ft 199 kts 272°
2026-05-06 19:24 60.58759 5.22396 4125 ft 199 kts 272°
2026-05-06 19:25 60.58603 5.19666 3997 ft 195 kts 244°
2026-05-06 19:25 60.57678 5.17544 4399 ft 206 kts 217°
2026-05-06 19:25 60.56371 5.16479 4393 ft 206 kts 194°
2026-05-06 19:25 60.54968 5.15951 4182 ft 205 kts 192°
2026-05-06 19:26 60.53564 5.15438 3927 ft 205 kts 192°
2026-05-06 19:26 60.52154 5.15028 3632 ft 207 kts 185°
2026-05-06 19:26 60.50714 5.14965 3395 ft 206 kts 181°
2026-05-06 19:26 60.49309 5.15129 3171 ft 198 kts 176°
2026-05-06 19:27 60.47947 5.15505 3010 ft 205 kts 173°
2026-05-06 19:27 60.46540 5.15980 3004 ft 203 kts 172°
2026-05-06 19:27 60.45135 5.16458 3001 ft 205 kts 172°
2026-05-06 19:27 60.43805 5.16913 2943 ft 179 kts 172°
2026-05-06 19:28 60.42630 5.17311 2720 ft 167 kts 172°
2026-05-06 19:28 60.41492 5.17697 2496 ft 164 kts 172°
2026-05-06 19:28 60.40366 5.18079 2271 ft 164 kts 172°
2026-05-06 19:28 60.39244 5.18459 2037 ft 160 kts 172°
2026-05-06 19:29 60.38190 5.18819 1813 ft 148 kts 172°
2026-05-06 19:29 60.37207 5.19152 1614 ft 142 kts 172°
2026-05-06 19:29 60.36222 5.19483 1414 ft 143 kts 172°
2026-05-06 19:29 60.35241 5.19816 1208 ft 143 kts 172°
2026-05-06 19:30 60.34262 5.20148 991 ft 142 kts 172°
2026-05-06 19:30 60.33293 5.20477 792 ft 141 kts 172°
2026-05-06 19:30 60.32330 5.20802 592 ft 140 kts 172°
2026-05-06 19:30 60.31374 5.21124 404 ft 140 kts 172°
2026-05-06 19:31 60.30420 5.21448 234 ft 138 kts 172°
2026-05-06 19:31 60.29530 5.21757 166 ft 109 kts 171°
2026-05-06 19:31 60.28925 5.21957 161 ft 12 kts 132°
2026-05-06 19:32 60.28918 5.22015 160 ft 1 kts 95°
2026-05-06 19:32 60.28916 5.22050 160 ft 5 kts 94°
2026-05-06 19:32 60.28918 5.22116 161 ft 4 kts 80°
2026-05-06 19:32 60.28923 5.22163 161 ft 3 kts 80°
2026-05-06 19:33 60.28924 5.22176 161 ft 0 kts 80°
2026-05-06 19:33 60.28924 5.22184 161 ft 3 kts 79°
2026-05-06 19:34 60.28934 5.22293 161 ft 12 kts 82°
2026-05-06 19:34 60.28927 5.22389 161 ft 6 kts 119°
2026-05-06 19:34 60.28912 5.22404 161 ft 0 kts 159°
2026-05-06 19:34 60.28899 5.22410 161 ft 0 kts 163°
2026-05-06 19:35 60.28897 5.22478 161 ft 8 kts 77°
2026-05-06 19:35 60.28896 5.22514 161 ft 0 kts 92°